Weather History for Pipestone, MN

Change the Weather History Date:

Monday, February 4, 2013

  Actual Average Record
Temperature  
Mean Temperature 14 °F -  
Max Temperature 21 °F 27 °F 60 °F (2005)
Min Temperature 6 °F 10 °F -11 °F (2007)
Degree Days  
Heating Degree Days 52    
Moisture  
Dew Point 11 °F    
Average Humidity 86    
Maximum Humidity 93    
Minimum Humidity 79    
Precipitation  
Precipitation 0.00 in - - ()
Sea Level Pressure  
Sea Level Pressure 29.88 in    
Wind  
Wind Speed 9 mph (SW)    
Max Wind Speed 15 mph    
Max Gust Speed 21 mph    
Visibility 8 miles    
Events Snow    
Averages and records for this station are not official NWS values.
T = Trace of Precipitation, MM = Missing Value Source: NWS Daily Summary

Daily Weather History Graph

Daily Weather History Graph

Search for Another Location

Airport:

Trip Planner

Search our weather history database for the weather conditions in past years. The results will help you decide how hot, cold, wet, or windy it might be!

Date:

Astronomy

Feb. 04, 2013 Rise Set
Actual Time 7:38 AM CST 5:40 PM CST
Civil Twilight 7:08 AM CST 6:10 PM CST
Nautical Twilight 6:33 AM CST 6:44 PM CST
Astronomical Twilight 6:00 AM CST 7:18 PM CST
Moon 2:18 AM CST (2/4) 12:01 PM CST (2/4)
Length of Visible Light 11h 02m
Length of Day
10h 01m
Last Quarter, 37% of the Moon is Illuminated
Feb 4
Last Quarter
Feb 10
New
Feb 17
First Quarter
Feb 25
Full
Mar 4
Last Quarter

Hourly Weather History & Observations

Time (CST) Temp. Windchill Dew Point Humidity Pressure Visibility Wind Dir Wind Speed Gust Speed Precip Events Conditions
12:13 AM 12.2 °F -3.1 °F 10.4 °F 92% 29.84 in 10.0 mi ENE 13.8 mph 19.6 mph N/A   Overcast
12:33 AM 12.2 °F -1.0 °F 10.4 °F 92% 29.85 in 10.0 mi ENE 10.4 mph - N/A   Overcast
12:53 AM 12.2 °F -1.0 °F 10.4 °F 92% 29.85 in 10.0 mi ENE 10.4 mph 18.4 mph N/A   Overcast
1:13 AM 12.2 °F -1.8 °F 10.4 °F 92% 29.86 in 10.0 mi NE 11.5 mph - N/A   Overcast
1:53 AM 12.2 °F -1.0 °F 8.6 °F 85% 29.86 in 10.0 mi NE 10.4 mph 18.4 mph N/A Snow Light Snow
2:13 AM 12.2 °F -1.8 °F 8.6 °F 85% 29.88 in 7.0 mi ENE 11.5 mph 20.7 mph N/A Snow Light Snow
2:34 AM 12.2 °F -1.0 °F 8.6 °F 85% 29.89 in 7.0 mi ENE 10.4 mph 16.1 mph N/A Snow Light Snow
2:53 AM 10.4 °F -2.4 °F 8.6 °F 92% 29.88 in 7.0 mi ENE 9.2 mph - N/A Snow Light Snow
3:13 AM 10.4 °F -3.3 °F 8.6 °F 92% 29.90 in 10.0 mi NE 10.4 mph 16.1 mph N/A Snow Light Snow
5:13 AM 8.6 °F -3.7 °F 5.0 °F 85% 29.95 in 4.0 mi NNE 8.1 mph - N/A Snow Light Snow
5:33 AM 8.6 °F -4.7 °F 5.0 °F 85% 29.94 in 10.0 mi NE 9.2 mph - N/A Snow Light Snow
5:53 AM 6.8 °F -4.8 °F 3.2 °F 85% 29.94 in 7.0 mi NE 6.9 mph - N/A Snow Light Snow
6:14 AM 6.8 °F -2.0 °F 3.2 °F 85% 29.95 in 10.0 mi NNE 4.6 mph - N/A Snow Light Snow
6:33 AM 6.8 °F -2.0 °F 3.2 °F 85% 29.96 in 10.0 mi North 4.6 mph - N/A Snow Light Snow
6:53 AM 6.8 °F -3.5 °F 3.2 °F 85% 29.96 in 10.0 mi North 5.8 mph - N/A   Mostly Cloudy
7:14 AM 6.8 °F -2.0 °F 3.2 °F 85% 29.97 in 10.0 mi NNE 4.6 mph - N/A Snow Light Snow
7:53 AM 6.8 °F -3.5 °F 3.2 °F 85% 29.95 in 7.0 mi ENE 5.8 mph - N/A Snow Light Snow
8:13 AM 6.8 °F -0.1 °F 3.2 °F 85% 29.96 in 2.5 mi East 3.5 mph - N/A Snow Light Snow
8:33 AM 6.8 °F -0.1 °F 3.2 °F 85% 29.99 in 2.5 mi NE 3.5 mph - N/A Snow Light Snow
8:54 AM 6.8 °F - 3.2 °F 85% 29.99 in 2.0 mi Calm Calm - N/A Snow Light Snow
9:13 AM 6.8 °F - 3.2 °F 85% 30.00 in 3.0 mi Calm Calm - N/A Snow Light Snow
9:33 AM 6.8 °F - 3.2 °F 85% 30.00 in 3.0 mi Calm Calm - N/A Snow Light Snow
9:53 AM 6.8 °F - 3.2 °F 85% 29.99 in 2.5 mi Calm Calm - N/A Snow Light Snow
10:13 AM 8.6 °F - 5.0 °F 85% 29.97 in 2.5 mi Calm Calm - N/A Snow Light Snow
10:33 AM 8.6 °F - 5.0 °F 85% 29.96 in 7.0 mi Calm Calm - N/A Snow Light Snow
10:53 AM 10.4 °F - 5.0 °F 79% 29.96 in 7.0 mi Calm Calm - N/A Snow Light Snow
11:13 AM 10.4 °F - 6.8 °F 85% 29.96 in 7.0 mi Calm Calm - N/A   Clear
11:33 AM 10.4 °F - 6.8 °F 85% 29.96 in 4.0 mi Calm Calm - N/A Snow Light Snow
11:53 AM 12.2 °F 6.1 °F 8.6 °F 85% 29.96 in 4.0 mi SW 3.5 mph - N/A Snow Light Snow
12:33 PM 12.2 °F 2.9 °F 8.6 °F 85% 29.96 in 5.0 mi West 5.8 mph - N/A Snow Light Snow
12:53 PM 14.0 °F 5.1 °F 10.4 °F 86% 29.96 in 5.0 mi WSW 5.8 mph - N/A Snow Light Snow
1:13 PM 15.8 °F 7.2 °F 10.4 °F 79% 29.95 in 10.0 mi WSW 5.8 mph - N/A Snow Light Snow
1:33 PM 15.8 °F 7.2 °F 10.4 °F 79% 29.93 in 10.0 mi SW 5.8 mph - N/A   Scattered Clouds
1:53 PM 15.8 °F 8.6 °F 10.4 °F 79% 29.92 in 7.0 mi WSW 4.6 mph - N/A Snow Light Snow
2:13 PM 15.8 °F 4.2 °F 10.4 °F 79% 29.91 in 10.0 mi WSW 9.2 mph - N/A   Scattered Clouds
2:33 PM 17.6 °F 6.4 °F 12.2 °F 79% 29.91 in 10.0 mi WSW 9.2 mph - N/A   Scattered Clouds
2:53 PM 17.6 °F 6.4 °F 12.2 °F 79% 29.90 in 10.0 mi WSW 9.2 mph - N/A   Scattered Clouds
3:13 PM 17.6 °F 6.4 °F 12.2 °F 79% 29.88 in 10.0 mi SW 9.2 mph - N/A   Scattered Clouds
3:34 PM 17.6 °F 6.4 °F 12.2 °F 79% 29.88 in 10.0 mi SW 9.2 mph - N/A   Scattered Clouds
3:53 PM 17.6 °F 6.4 °F 12.2 °F 79% 29.87 in 10.0 mi SW 9.2 mph - N/A   Scattered Clouds
4:13 PM 17.6 °F 5.0 °F 12.2 °F 79% 29.86 in 10.0 mi SW 11.5 mph - N/A   Scattered Clouds
4:34 PM 17.6 °F 6.4 °F 14.0 °F 86% 29.85 in 10.0 mi SW 9.2 mph - N/A   Scattered Clouds
4:53 PM 17.6 °F 5.0 °F 12.2 °F 79% 29.85 in 10.0 mi SW 11.5 mph - N/A   Clear
5:13 PM 17.6 °F 6.4 °F 14.0 °F 86% 29.84 in 10.0 mi SW 9.2 mph - N/A   Scattered Clouds
5:34 PM 17.6 °F 5.7 °F 14.0 °F 86% 29.82 in 10.0 mi SW 10.4 mph - N/A   Scattered Clouds
5:53 PM 17.6 °F 6.4 °F 14.0 °F 86% 29.81 in 10.0 mi SSW 9.2 mph - N/A   Mostly Cloudy
6:13 PM 19.4 °F 6.0 °F 15.8 °F 86% 29.80 in 10.0 mi SSW 13.8 mph - N/A   Mostly Cloudy
6:33 PM 19.4 °F 6.6 °F 15.8 °F 86% 29.80 in 10.0 mi SW 12.7 mph - N/A   Overcast
6:53 PM 19.4 °F 7.2 °F 15.8 °F 86% 29.80 in 10.0 mi SW 11.5 mph - N/A   Overcast
7:14 PM 19.4 °F 6.0 °F 15.8 °F 86% 29.80 in 10.0 mi SW 13.8 mph - N/A   Overcast
7:33 PM 19.4 °F 6.0 °F 15.8 °F 86% 29.82 in 10.0 mi SW 13.8 mph - N/A   Overcast
7:53 PM 19.4 °F 5.5 °F 17.6 °F 93% 29.81 in 10.0 mi WSW 15.0 mph - N/A   Overcast
8:13 PM 19.4 °F 7.2 °F 17.6 °F 93% 29.81 in 10.0 mi WSW 11.5 mph - N/A   Overcast
8:33 PM 19.4 °F 6.6 °F 17.6 °F 93% 29.79 in 10.0 mi SW 12.7 mph - N/A   Overcast
8:53 PM 19.4 °F 7.2 °F 17.6 °F 93% 29.78 in 10.0 mi SW 11.5 mph - N/A   Overcast
9:13 PM 19.4 °F 7.2 °F 17.6 °F 93% 29.77 in 10.0 mi SW 11.5 mph - N/A   Overcast
9:33 PM 19.4 °F 6.0 °F 17.6 °F 93% 29.76 in 10.0 mi SSW 13.8 mph - N/A   Overcast
9:52 PM 19.4 °F 6.6 °F 17.6 °F 93% 29.76 in 10.0 mi SSW 12.7 mph - N/A   Overcast
10:13 PM 19.4 °F 7.2 °F 17.6 °F 93% 29.75 in 10.0 mi SSW 11.5 mph - N/A   Overcast
10:33 PM 19.4 °F 6.6 °F 17.6 °F 93% 29.74 in 10.0 mi SSW 12.7 mph - N/A   Overcast
10:53 PM 19.4 °F 6.6 °F 17.6 °F 93% 29.73 in 10.0 mi SSW 12.7 mph - N/A   Mostly Cloudy
11:13 PM 21.2 °F 9.5 °F 17.6 °F 86% 29.72 in 10.0 mi SSW 11.5 mph - N/A   Mostly Cloudy
11:33 PM 21.2 °F 8.3 °F 17.6 °F 86% 29.71 in 10.0 mi SSW 13.8 mph - N/A   Scattered Clouds
11:53 PM 21.2 °F 10.1 °F 19.4 °F 93% 29.71 in 10.0 mi SW 10.4 mph - N/A   Clear